Home > Weather > Mazari Sharif > Past weeks

Flag for Afghanistan Past Weather in Mazari Sharif, Afghanistan — Yesterday and Last 2 Weeks

Now
72 °F

Clear.


Feels Like: 77 °F
Forecast: 67 / 100 °F
Wind: 8 mph from Northeast

Location: Termez Airport

Current Time: May 26, 2016 at 5:24:32 AM

Latest Report: May 26, 2016 at 4:30 AM


Visibility: 10 mi

Pressure: 29.59 "Hg

Humidity: 44%

Dew Point: 48 °F

Location of Mazari SharifLocation

Past Weather in Mazari Sharif — Graph

°F

Mazari Sharif Temperature Yesterday

Maximum temperature yesterday: 97 °F (at 1:30 PM)
Minimum temperature yesterday: 66 °F (at 5:30 AM)
Average temperature yesterday: 85 °F

High & Low Weather Summary for the Past Weeks

 TemperatureHumidityPressure
High100 °F (May 17, 2:30 PM)88% (May 14, 1:30 AM)29.98 "Hg (May 14, 1:30 AM)
Low61 °F (May 19, 5:30 AM)11% (May 22, 12:30 PM)29.56 "Hg (May 25, 4:30 PM)
Average82 °F37%29.80 "Hg
* Reported May 11 3:30 AM — May 26 4:00 AM, Mazari Sharif, Weather by CustomWeather, © 2016

Note: Actual official high and low records may vary slightly from our data, if they occured in-between our weather recording intervals... More about our weather records

Advertising

Mazari Sharif Weather History for the Previous 24 Hours

Scroll right to see more
 ConditionsComfort  
Time TempWeatherWind HumidityBarometerVisibility
4:00 AM
Thu, May 26
72 °FClear.8 mph44%29.59 "Hg10 mi
3:30 AM73 °FClear.8 mph38%29.56 "Hg10 mi
2:30 AM73 °FClear.7 mph41%29.56 "Hg10 mi
2:00 AM73 °FClear.9 mph44%29.56 "Hg10 mi
1:30 AM75 °FClear.9 mph44%29.56 "Hg10 mi
1:00 AM75 °FClear.10 mph44%29.56 "Hg10 mi
12:30 AM75 °FClear.8 mph39%29.56 "Hg10 mi
12:00 AM77 °FClear.9 mph36%29.56 "Hg10 mi
11:30 PM
Wed, May 25
77 °FClear.8 mph36%29.56 "Hg10 mi
11:00 PM79 °FClear.8 mph32%29.56 "Hg10 mi
10:30 PM75 °FClear.6 mph39%29.56 "Hg10 mi
10:00 PM77 °FClear.5 mph36%29.56 "Hg10 mi
9:30 PM77 °FClear.5 mph39%29.56 "Hg10 mi
9:00 PM79 °FClear.7 mph30%29.56 "Hg10 mi
8:30 PM82 °FClear.6 mph28%29.56 "Hg10 mi
8:00 PM88 °FClear.3 mph21%29.56 "Hg10 mi
7:30 PM88 °FClear.1 mph18%29.56 "Hg10 mi
7:00 PM91 °FPassing clouds.No wind14%29.56 "HgN/A
6:30 PM93 °FPassing clouds.No wind15%29.56 "HgN/A
6:00 PM97 °FPassing clouds.No wind18%29.56 "HgN/A
5:30 PM95 °FPassing clouds.No wind13%29.56 "HgN/A
5:00 PM97 °FPassing clouds.3 mph13%29.56 "HgN/A
4:30 PM95 °FPassing clouds.6 mph15%29.56 "HgN/A
4:00 PM97 °FPassing clouds.3 mph16%29.59 "HgN/A
3:30 PM97 °FPassing clouds.5 mph14%29.59 "HgN/A
3:00 PM97 °FPassing clouds.8 mph17%29.59 "HgN/A
2:30 PM97 °FPassing clouds.8 mph16%29.62 "HgN/A
2:00 PM97 °FPassing clouds.6 mph16%29.62 "HgN/A
1:30 PM97 °FPassing clouds.6 mph18%29.62 "HgN/A
1:00 PM95 °FPassing clouds.3 mph18%29.65 "HgN/A
12:30 PM93 °FPassing clouds.6 mph19%29.65 "HgN/A
12:00 PM95 °FSunny.5 mph19%29.65 "Hg10 mi
11:30 AM93 °FSunny.6 mph20%29.68 "Hg10 mi
11:00 AM93 °FSunny.5 mph20%29.68 "Hg10 mi
10:30 AM93 °FPassing clouds.5 mph21%29.68 "HgN/A
10:00 AM90 °FPassing clouds.5 mph26%29.68 "HgN/A
9:30 AM88 °FPassing clouds.6 mph24%29.71 "HgN/A
9:00 AM86 °FPassing clouds.3 mph29%29.71 "HgN/A
8:30 AM82 °FPassing clouds.5 mph32%29.71 "HgN/A
8:00 AM81 °FPassing clouds.5 mph34%29.71 "HgN/A
7:30 AM81 °FSunny.2 mph37%29.71 "Hg10 mi
7:00 AM75 °FSunny.3 mph54%29.71 "Hg10 mi
6:30 AM72 °FSunny.2 mph65%29.71 "Hg10 mi
5:30 AM66 °FSunny.2 mph73%29.71 "Hg10 mi
Weather by CustomWeather, © 2016

See weather overviewHow to use our weather pages